Total_Precipitation_Accumulation
0.00 0.01 0.05 0.03 0.02 0.02 0.03 0.05 0.08 0.08 0.08 0.09 0.11 0.10 0.08 0.05 0.04 0.04 0.05 0.05 0.06 0.06 0.07 0.08 0.11 0.12 0.14 0.14 0.14 0.11 0.10 0.10 0.10 0.11 0.11 0.12 0.15 0.23 0.26 0.27 0.37 0.25 0.17
0.00 0.01 0.04 0.03 0.02 0.02 0.04 0.05 0.07 0.07 0.07 0.08 0.10 0.11 0.07 0.05 0.04 0.03 0.06 0.08 0.06 0.06 0.07 0.08 0.08 0.09 0.12 0.12 0.10 0.07 0.06 0.07 0.08 0.09 0.10 0.11 0.15 0.24 0.31 0.29 0.40 0.23 0.14
0.00 0.01 0.03 0.03 0.02 0.02 0.03 0.05 0.08 0.08 0.06 0.06 0.07 0.07 0.05 0.05 0.04 0.04 0.05 0.11 0.13 0.11 0.08 0.06 0.06 0.07 0.08 0.08 0.06 0.04 0.04 0.05 0.08 0.12 0.20 0.23 0.12 0.22 0.32 0.30 0.23 0.12 0.13
0.00 0.00 0.02 0.03 0.02 0.02 0.02 0.03 0.06 0.07 0.08 0.09 0.10 0.08 0.07 0.07 0.06 0.05 0.06 0.09 0.12 0.10 0.08 0.04 0.04 0.04 0.05 0.03 0.03 0.04 0.04 0.06 0.10 0.18 0.46 0.50 0.23 0.19 0.28 0.27 0.20 0.14 0.13
0.00 0.00 0.02 0.03 0.02 0.02 0.02 0.03 0.05 0.07 0.08 0.11 0.11 0.10 0.10 0.08 0.07 0.07 0.07 0.08 0.09 0.06 0.06 0.06 0.06 0.05 0.04 0.03 0.03 0.03 0.04 0.06 0.11 0.25 0.39 0.46 0.43 0.25 0.24 0.27 0.25 0.26 0.20
0.00 0.01 0.03 0.03 0.02 0.02 0.02 0.03 0.04 0.06 0.07 0.09 0.08 0.08 0.08 0.08 0.09 0.09 0.08 0.10 0.12 0.11 0.08 0.09 0.09 0.09 0.07 0.04 0.03 0.03 0.04 0.07 0.12 0.20 0.24 0.29 0.38 0.30 0.27 0.38 0.40 0.39 0.32
0.01 0.01 0.03 0.04 0.03 0.03 0.03 0.03 0.04 0.05 0.06 0.07 0.07 0.06 0.06 0.07 0.07 0.08 0.08 0.09 0.10 0.13 0.12 0.13 0.12 0.10 0.10 0.09 0.06 0.05 0.05 0.09 0.16 0.18 0.17 0.32 0.38 0.21 0.31 0.55 0.70 0.65 0.51
0.01 0.02 0.04 0.05 0.04 0.04 0.04 0.04 0.04 0.04 0.05 0.06 0.06 0.05 0.04 0.04 0.05 0.07 0.09 0.08 0.07 0.08 0.09 0.12 0.15 0.13 0.10 0.14 0.12 0.08 0.08 0.11 0.14 0.15 0.17 0.28 0.26 0.21 0.36 0.64 0.81 0.78 0.66
0.01 0.02 0.05 0.06 0.06 0.06 0.05 0.05 0.05 0.05 0.06 0.06 0.05 0.05 0.04 0.04 0.05 0.06 0.07 0.07 0.07 0.06 0.07 0.08 0.10 0.11 0.10 0.13 0.16 0.15 0.13 0.15 0.21 0.23 0.21 0.33 0.31 0.36 0.58 0.80 0.92 0.90 0.83
0.05 0.05 0.06 0.07 0.09 0.09 0.08 0.09 0.09 0.09 0.09 0.09 0.08 0.08 0.08 0.07 0.06 0.08 0.09 0.09 0.09 0.09 0.08 0.10 0.11 0.12 0.13 0.14 0.15 0.22 0.27 0.23 0.13 0.15 0.32 0.29 0.28 0.54 0.85 1.00 1.10 1.11 1.05
0.13 0.12 0.12 0.15 0.13 0.12 0.13 0.13 0.13 0.14 0.15 0.14 0.15 0.15 0.14 0.12 0.16 0.21 0.17 0.19 0.21 0.24 0.25 0.27 0.31 0.31 0.31 0.23 0.25 0.39 0.41 0.20 0.16 0.20 0.31 0.26 0.34 0.71 1.07 1.23 1.26 1.28 1.24
0.22 0.19 0.16 0.17 0.15 0.14 0.16 0.21 0.24 0.23 0.26 0.26 0.33 0.34 0.32 0.35 0.34 0.26 0.30 0.38 0.52 0.63 0.66 0.79 0.91 0.74 0.58 0.58 1.04 1.05 0.38 0.23 0.31 0.27 0.33 0.31 0.50 0.92 1.26 1.47 1.49 1.42 1.37
0.32 0.29 0.25 0.21 0.21 0.23 0.27 0.31 0.37 0.37 0.45 0.49 0.57 0.63 0.63 0.57 0.46 0.39 0.47 0.64 0.82 0.89 0.90 1.27 1.41 1.03 1.09 1.32 1.46 1.23 0.57 0.45 0.41 0.36 0.48 0.58 0.72 1.16 1.62 1.78 1.81 1.67 1.55
0.51 0.45 0.42 0.40 0.41 0.42 0.43 0.46 0.48 0.51 0.59 0.68 0.76 0.82 0.90 0.92 0.80 0.74 0.81 0.91 1.05 1.11 1.34 1.51 1.69 1.53 1.59 1.51 1.39 1.20 0.99 0.99 0.77 0.81 1.04 0.93 0.88 1.17 1.79 2.03 2.07 1.96 1.67
0.75 0.62 0.59 0.58 0.59 0.62 0.73 0.84 0.82 0.82 0.89 0.94 1.05 1.13 1.20 1.31 1.27 1.26 1.19 1.24 1.16 1.31 1.50 1.79 1.77 2.03 2.07 1.85 1.57 1.38 1.30 1.22 1.07 1.16 1.31 1.29 1.25 1.40 2.03 2.44 2.42 2.25 1.96
0.87 0.77 0.80 0.82 0.93 1.07 1.12 1.19 1.31 1.36 1.37 1.40 1.42 1.48 1.57 1.72 1.87 1.81 1.61 1.56 1.44 1.51 1.79 2.05 2.07 2.41 2.26 2.14 1.75 1.62 1.43 1.30 1.20 1.30 1.44 1.55 1.51 1.58 1.87 2.32 2.58 2.54 2.29
0.85 0.89 1.09 1.33 1.47 1.60 1.70 1.82 1.83 1.86 1.80 1.81 1.98 2.07 2.12 2.12 2.14 2.01 1.85 1.75 1.84 1.96 2.10 2.12 2.21 2.46 2.20 2.12 1.91 1.78 1.55 1.34 1.26 1.38 1.49 1.66 1.53 1.49 1.71 2.06 2.41 2.44 2.32
0.93 1.06 1.29 1.59 1.90 2.08 2.16 2.28 2.31 2.26 2.18 2.27 2.30 2.34 2.37 2.30 2.21 2.24 1.99 1.82 2.08 2.20 2.31 2.39 2.39 2.41 2.33 2.24 2.05 1.75 1.59 1.42 1.25 1.33 1.35 1.44 1.51 1.25 1.44 1.89 2.01 1.95 2.06
1.30 1.55 1.81 1.90 2.03 2.20 2.44 2.59 2.42 2.33 2.24 2.22 2.20 2.20 2.18 2.18 2.20 2.42 2.19 2.16 2.34 2.50 2.41 2.24 2.53 2.61 2.46 2.37 2.10 1.91 1.53 1.34 1.24 1.19 1.20 1.21 1.34 1.31 1.24 1.37 1.72 1.66 1.87
1.75 2.02 2.07 2.09 2.37 2.78 3.09 3.03 2.76 2.42 2.23 2.13 2.05 1.99 2.03 2.16 2.23 2.47 2.25 2.29 2.48 2.58 2.58 2.57 2.63 2.62 2.48 2.50 2.20 1.92 1.59 1.25 1.19 1.11 1.02 1.07 1.08 0.95 0.96 1.05 1.27 1.16 1.32
2.00 2.14 2.25 2.54 2.93 3.13 3.10 3.09 3.04 2.73 2.45 2.13 1.90 1.90 1.98 2.02 2.17 2.42 2.16 2.44 2.58 2.55 2.60 2.62 2.73 2.59 2.44 2.63 2.47 1.95 1.49 1.19 1.01 0.87 0.87 0.90 0.83 0.89 1.02 1.19 1.36 1.39 1.24
2.05 2.29 2.57 2.87 3.18 3.07 3.20 3.40 3.34 3.09 2.51 2.16 1.96 1.93 1.98 2.02 2.09 2.24 2.50 2.56 2.63 2.61 2.61 2.58 2.59 2.37 2.17 2.49 2.47 2.23 1.65 1.28 0.98 0.81 0.90 0.84 0.86 1.00 1.00 1.07 1.26 1.47 1.40
2.21 2.59 2.84 3.03 3.09 3.03 3.17 3.30 3.02 2.79 2.35 2.22 2.21 2.10 2.05 2.17 2.21 2.34 2.51 2.59 2.51 2.42 2.43 2.52 2.42 2.28 2.09 2.18 2.39 2.37 1.88 1.41 1.08 0.88 0.89 0.90 1.08 1.14 1.02 0.98 0.95 0.96 1.03
2.29 2.65 2.99 2.98 2.95 2.90 3.00 3.08 2.92 2.64 2.36 2.25 2.28 2.07 1.93 1.91 1.97 2.08 2.16 2.31 2.36 2.34 2.30 2.27 2.24 2.24 2.14 2.00 2.21 2.25 2.08 1.80 1.53 1.07 0.85 0.86 1.04 1.09 1.02 0.92 0.90 0.94 1.00
2.02 2.33 2.61 2.80 2.83 2.76 2.72 2.69 2.66 2.46 2.21 2.08 2.02 1.90 1.85 1.87 1.80 1.80 1.91 2.09 2.15 2.08 2.06 2.20 2.35 2.31 2.14 1.98 2.06 2.15 2.26 2.15 1.82 1.47 1.05 0.96 0.97 0.88 0.95 0.94 0.89 0.93 1.05
1.83 2.10 2.27 2.40 2.45 2.41 2.32 2.28 2.30 2.24 2.18 2.03 1.88 1.89 1.92 1.86 1.73 1.68 1.71 1.82 1.90 1.88 1.86 1.90 2.00 2.03 2.00 2.06 2.08 2.09 2.17 2.13 1.99 1.87 1.46 1.22 1.08 0.81 0.85 0.88 0.90 0.90 0.97